Location: Newark
(34.1333°N, 7.9667°W)
Time: 16:54:01
(UTC+00:00)

DOVE 4 - Visible Passes

Search period start: 31 May 2023 00:00
Search period end: 10 June 2023 00:00
Orbit: 584 x 791 km, 97.8° (Epoch: 31 May)

Date Brightness Start Highest point End Pass type
(mag) Time Alt. Az. Time Alt. Az. Time Alt. Az.
31 May ? 22:07:34 10° NE 22:08:58 15° ENE 22:08:58 15° ENE visible
31 May ? 23:44:12 10° N 23:47:33 33° NW 23:47:33 33° NW visible
01 Jun ? 22:44:38 10° NNE 22:47:37 34° NE 22:47:37 34° NE visible
02 Jun ? 00:23:39 10° NNW 00:26:11 15° WNW 00:26:11 15° WNW visible
02 Jun ? 23:22:40 10° N 23:26:15 47° NNW 23:26:15 47° NNW visible
03 Jun ? 22:23:46 10° NE 22:26:19 24° ENE 22:26:19 24° ENE visible
04 Jun ? 00:01:26 10° NNW 00:04:53 25° WNW 00:04:53 25° WNW visible
04 Jun ? 23:01:21 10° NNE 23:04:57 49° NNE 23:04:57 49° NNE visible
05 Jun ? 00:42:33 10° WNW 00:43:09 10° WNW 00:43:31 10° WNW visible
05 Jun ? 22:03:16 10° NE 22:04:58 16° ENE 22:04:58 16° ENE visible
05 Jun ? 23:39:41 10° N 23:43:34 38° NW 23:43:34 38° NW visible
06 Jun ? 22:40:14 10° NNE 22:43:36 37° NE 22:43:36 37° NE visible
07 Jun ? 00:18:56 10° NNW 00:22:09 17° WNW 00:22:10 17° WNW visible
07 Jun ? 23:18:10 10° N 23:22:12 55° NNW 23:22:12 55° NNW visible
08 Jun ? 22:19:22 10° NE 22:22:13 25° ENE 22:22:13 25° ENE visible
08 Jun ? 23:56:49 10° NNW 00:00:48 28° WNW 00:00:48 28° WNW visible
09 Jun ? 22:56:51 10° NNE 23:00:49 54° NE 23:00:49 54° NE visible
